TimePST,TemperatureF,Dew PointF,Humidity,Sea Level PressureIn,VisibilityMPH,Wind Direction,Wind SpeedMPH,Gust SpeedMPH,PrecipitationIn,Events,Conditions,WindDirDegrees,DateUTC
12:53 AM,39.9,37.0,89,30.18,10.0,Calm,Calm,-,N/A,,Overcast,0,2012-12-28 08:53:00
1:53 AM,39.9,37.0,89,30.17,10.0,SSE,4.6,-,N/A,,Overcast,160,2012-12-28 09:53:00
2:53 AM,39.2,37.4,93,30.16,10.0,Calm,Calm,-,N/A,,Overcast,0,2012-12-28 10:53:00
3:53 AM,39.0,37.0,93,30.17,10.0,Calm,Calm,-,0.00,,Overcast,0,2012-12-28 11:53:00
4:53 AM,39.9,37.0,89,30.16,10.0,Calm,Calm,-,0.00,,Overcast,0,2012-12-28 12:53:00
5:53 AM,39.0,37.9,96,30.15,10.0,Calm,Calm,-,N/A,,Mostly Cloudy,0,2012-12-28 13:53:00
6:53 AM,39.0,37.0,93,30.14,10.0,Calm,Calm,-,N/A,,Mostly Cloudy,0,2012-12-28 14:53:00
7:53 AM,37.9,36.0,93,30.13,10.0,Calm,Calm,-,N/A,,Overcast,0,2012-12-28 15:53:00
8:53 AM,37.9,37.0,97,30.14,10.0,Calm,Calm,-,N/A,,Partly Cloudy,0,2012-12-28 16:53:00
9:53 AM,39.9,37.9,93,30.15,10.0,Calm,Calm,-,N/A,,Clear,0,2012-12-28 17:53:00
10:53 AM,42.1,37.9,85,30.15,10.0,Calm,Calm,-,N/A,,Clear,0,2012-12-28 18:53:00
11:53 AM,44.1,37.9,79,30.14,10.0,Calm,Calm,-,N/A,,Clear,0,2012-12-28 19:53:00
12:53 PM,46.9,37.9,71,30.13,10.0,Calm,Calm,-,N/A,,Clear,0,2012-12-28 20:53:00
1:53 PM,46.0,39.0,76,30.12,10.0,NNW,3.5,-,N/A,,Scattered Clouds,330,2012-12-28 21:53:00
2:53 PM,46.0,39.9,79,30.13,10.0,NW,3.5,-,N/A,,Scattered Clouds,320,2012-12-28 22:53:00
3:53 PM,46.0,39.9,79,30.13,10.0,Calm,Calm,-,N/A,,Overcast,0,2012-12-28 23:53:00
4:53 PM,44.1,37.0,76,30.14,10.0,Calm,Calm,-,N/A,,Mostly Cloudy,0,2012-12-29 00:53:00
5:53 PM,44.1,34.0,68,30.14,10.0,SSE,3.5,-,N/A,,Overcast,150,2012-12-29 01:53:00
6:53 PM,44.1,33.1,65,30.15,10.0,Calm,Calm,-,N/A,,Overcast,0,2012-12-29 02:53:00
7:53 PM,42.1,36.0,79,30.15,10.0,Calm,Calm,-,N/A,,Overcast,0,2012-12-29 03:53:00
8:53 PM,41.0,36.0,82,30.16,10.0,North,-9999.0,-,N/A,,Overcast,0,2012-12-29 04:53:00
9:53 PM,41.0,33.1,73,30.17,10.0,SE,4.6,-,N/A,,Overcast,140,2012-12-29 05:53:00
10:53 PM,41.0,33.1,73,30.17,10.0,ESE,3.5,-,N/A,,Mostly Cloudy,110,2012-12-29 06:53:00
11:12 PM,41.0,30.2,65,30.16,10.0,SSE,4.6,-,N/A,,Mostly Cloudy,150,2012-12-29 07:12:00
11:48 PM,41.0,30.2,65,30.16,10.0,SE,3.5,-,N/A,,Overcast,140,2012-12-29 07:48:00
11:53 PM,41.0,30.9,67,30.18,10.0,SE,3.5,-,N/A,,Overcast,140,2012-12-29 07:53:00